Theta_e
308 308 308 308 308 308 309 308 309 309 309 309 309 310 307 302 301 310 314 315 316 315 315 326 331 329 333 335 332 328 328 331 331 332 332 332 331 331 331 332 333 332 332 332 331
306 306 307 307 308 308 308 308 308 309 309 309 305 304 302 305 310 312 311 313 317 315 315 319 324 327 331 330 331 328 329 330 331 331 333 332 332 332 332 333 333 332 332 331 331
306 306 306 307 308 307 307 308 308 309 309 309 307 302 301 306 314 314 315 314 313 315 314 317 321 327 326 328 330 331 331 329 331 332 332 332 332 332 332 333 333 333 332 332 333
306 306 306 307 307 307 307 307 308 308 308 308 308 308 302 311 314 316 311 314 312 313 313 314 317 322 329 328 327 332 332 331 332 333 333 333 332 333 333 333 333 334 333 332 333
304 305 305 304 306 307 306 306 305 305 305 305 308 309 309 310 312 314 312 314 313 314 314 315 316 318 321 327 328 328 328 330 332 333 332 333 333 334 333 333 333 333 334 334 333
305 306 305 305 304 304 304 304 303 304 304 304 308 308 310 310 309 311 313 314 314 316 318 320 320 320 321 323 327 328 328 329 330 331 331 331 332 332 333 334 333 334 334 333 333
304 304 304 305 305 304 303 303 303 303 304 308 308 309 310 309 308 310 310 312 314 315 317 318 322 321 323 323 324 327 330 330 330 330 331 331 332 332 332 332 332 333 334 333 334
304 304 302 302 303 303 302 302 302 302 307 306 309 310 310 308 309 310 310 310 310 311 312 314 316 318 321 322 323 326 328 331 330 330 331 331 333 332 331 331 332 333 333 334 333
306 305 304 302 301 301 302 301 301 304 306 307 311 311 313 310 311 310 309 309 309 310 311 313 315 318 319 322 324 325 329 329 329 329 329 331 333 332 332 332 333 333 331 332 332
306 305 305 304 303 301 301 303 306 308 309 311 311 312 313 312 309 310 311 312 311 310 311 314 315 316 318 320 325 325 326 326 328 329 329 331 331 331 331 331 332 332 331 331 332
304 305 306 305 303 301 304 310 310 311 312 315 314 313 312 310 309 308 308 309 313 315 313 314 316 317 318 318 320 323 325 325 327 327 328 330 330 331 332 332 332 332 331 332 333
303 303 305 303 301 301 305 311 309 308 308 309 308 308 307 307 307 308 308 308 309 315 315 314 318 318 317 318 318 320 323 325 326 324 326 329 331 332 332 332 332 332 332 332 333
302 302 303 303 301 307 309 308 307 307 309 308 308 308 308 309 308 308 308 308 307 310 313 315 316 316 318 317 318 320 322 324 324 323 325 328 330 332 331 332 332 332 332 332 332
302 302 301 301 306 307 307 307 306 307 309 308 308 309 309 309 309 310 311 309 308 308 310 313 315 314 317 319 318 321 319 320 322 323 328 326 332 334 332 333 333 332 332 331 331
302 301 304 303 307 308 307 307 307 307 313 310 311 312 311 312 314 312 313 311 308 308 308 309 312 316 315 318 319 320 319 320 321 323 326 326 328 330 330 332 332 331 331 331 331
302 302 305 307 308 308 307 306 307 311 314 310 310 311 311 311 312 313 313 313 312 310 310 309 310 312 317 316 317 319 319 319 321 323 327 328 328 329 329 330 329 329 329 330 331
302 303 306 307 308 307 307 307 311 314 310 309 308 307 307 308 308 311 311 312 313 317 316 312 311 310 312 315 317 318 323 324 324 325 327 326 327 329 328 329 329 329 330 331 333
302 305 307 308 307 307 307 309 313 307 306 307 306 306 305 306 306 307 310 310 309 310 316 320 319 310 311 314 318 318 323 323 324 325 325 323 327 327 328 329 329 329 331 333 334
304 310 309 308 308 308 309 316 308 307 307 308 308 310 309 308 308 309 307 309 310 314 318 317 319 316 311 314 316 319 320 322 324 323 324 325 327 328 329 330 330 331 333 334 341
305 310 310 308 309 309 311 312 307 307 307 308 309 311 310 309 309 310 310 312 312 311 313 313 317 316 317 312 315 318 319 322 324 325 328 325 328 330 333 333 331 332 333 334 341
308 312 309 308 310 312 314 310 307 306 307 307 309 309 310 312 311 310 309 310 312 311 311 313 316 317 318 315 315 319 319 321 325 324 327 329 328 335 333 330 331 334 332 335 341
309 312 308 308 312 313 311 308 307 307 307 306 307 307 311 311 311 312 311 312 311 310 310 312 318 322 319 318 315 319 319 321 325 327 325 327 328 331 330 329 331 332 331 338 340
312 310 309 308 313 312 308 307 307 306 309 310 307 307 309 310 313 312 311 311 311 310 312 312 318 320 319 319 321 322 320 322 325 329 329 327 329 330 327 329 329 333 329 340 339
312 313 311 310 310 310 310 308 307 308 308 308 307 308 310 310 309 310 310 312 311 311 313 313 314 316 323 322 323 327 324 321 324 327 326 328 327 327 328 331 331 334 339 339 339
311 311 309 313 310 309 308 309 309 309 308 307 308 308 310 311 310 310 311 311 312 312 313 315 316 315 316 315 319 323 324 322 323 326 326 328 328 327 331 333 337 340 341 339 339
310 308 307 308 308 310 309 309 310 308 307 308 308 308 308 309 311 312 311 311 311 313 312 314 317 316 319 316 316 319 320 323 322 322 326 328 329 330 330 329 335 337 338 339 338
307 306 306 307 308 310 310 308 309 308 308 307 308 308 309 309 310 310 310 311 311 311 313 314 318 322 320 316 319 321 323 325 325 324 326 328 330 330 330 326 331 337 338 338 338
Wind_Speed
17 17 18 18 18 18 17 17 17 18 19 21 21 20 20 22 21 16 14 18 10 21 12 6 14 21 22 19 19 17 14 16 22 21 20 19 17 18 12 1 12 7 8 10 18
19 18 17 18 19 20 20 19 17 17 17 18 20 21 21 23 24 25 26 24 24 18 13 18 16 17 15 17 16 16 15 24 22 20 22 23 21 18 10 6 9 19 15 19 14
18 19 19 19 20 21 21 21 20 19 18 18 20 22 20 22 12 6 10 29 29 29 20 20 25 18 21 21 20 22 22 23 22 24 25 23 24 20 17 15 12 16 14 14 16
20 20 19 19 20 20 20 21 21 21 20 19 19 20 20 12 8 7 9 5 24 21 18 20 20 23 23 24 24 27 28 26 28 26 26 26 26 26 22 13 17 25 19 13 14
22 22 23 23 23 23 24 23 22 22 22 21 19 17 13 11 13 8 4 3 8 13 22 21 24 22 27 25 26 30 26 28 29 28 28 26 27 26 26 23 20 24 20 20 15
22 22 23 24 25 26 26 25 25 24 23 22 19 15 14 22 14 19 15 15 13 14 22 23 23 24 25 28 30 28 28 30 29 30 28 27 28 26 26 25 23 24 21 22 21
22 24 25 26 26 27 28 29 28 30 27 21 18 14 16 23 20 19 17 15 18 18 17 21 24 26 26 30 29 31 30 30 30 29 29 27 32 29 25 27 24 28 22 21 23
22 23 24 25 26 27 29 30 30 30 23 21 15 13 11 16 13 23 24 26 25 25 24 25 24 23 22 27 30 31 32 30 29 31 32 27 36 26 23 24 23 24 21 19 14
23 23 24 25 27 28 30 32 31 22 19 11 8 12 13 11 18 18 17 21 23 23 24 23 23 20 18 21 21 29 24 34 32 29 30 29 33 27 27 27 24 19 20 18 20
26 26 26 28 28 29 33 33 26 25 14 11 17 12 19 13 12 7 5 7 11 18 19 21 13 19 18 19 24 22 30 30 28 25 27 29 31 28 25 27 23 20 15 15 20
26 28 28 30 30 31 29 17 7 5 11 16 13 13 22 19 9 12 14 12 8 14 20 22 16 24 40 30 29 28 32 32 28 26 27 26 27 28 22 20 21 15 16 20 18
31 31 29 32 32 25 19 9 15 11 18 18 26 29 35 33 27 23 20 18 14 17 18 20 27 38 22 30 30 33 31 31 28 27 23 24 27 25 22 22 21 18 18 17 17
33 34 35 33 24 16 12 16 16 15 16 28 34 26 25 25 24 22 20 21 22 21 21 23 37 23 29 29 30 31 30 27 30 25 27 23 25 23 24 22 19 19 19 14 12
33 37 30 25 12 18 11 18 16 17 8 11 13 17 11 8 17 17 21 22 23 26 22 23 27 31 29 33 32 28 28 29 28 22 19 20 18 23 19 22 20 21 19 14 20
35 29 19 10 13 13 18 21 17 11 6 8 3 2 5 13 5 6 14 14 22 22 20 31 26 27 31 37 28 35 23 27 27 24 21 23 14 28 17 19 19 19 19 14 19
33 17 16 12 12 14 21 16 14 5 5 16 14 11 5 8 13 7 4 7 10 18 21 29 26 28 30 27 33 27 26 29 26 19 18 26 19 28 18 20 19 17 18 18 16
27 13 12 11 12 14 14 7 4 5 15 7 16 13 14 14 12 10 9 11 10 6 18 23 27 32 30 29 29 31 23 16 18 17 20 17 19 21 21 20 19 16 15 16 14
23 14 13 11 13 9 11 2 4 18 20 22 17 20 16 17 16 16 10 12 14 15 10 13 18 28 28 33 27 29 26 16 26 16 20 20 24 19 24 20 16 16 16 13 11
24 16 12 7 8 6 3 3 10 15 17 20 21 19 17 12 11 17 8 16 7 10 3 7 15 28 30 29 29 30 28 29 24 21 19 16 18 30 25 18 15 12 14 7 14
19 17 6 5 5 7 4 10 14 13 13 14 17 4 19 21 4 11 7 8 6 3 7 6 14 22 26 29 33 31 20 26 18 24 23 19 21 14 14 16 11 12 12 10 17
10 5 3 2 3 5 5 10 15 16 14 13 13 17 19 16 20 12 9 9 2 7 6 7 8 17 22 26 29 25 26 23 20 18 16 14 14 7 3 5 5 17 14 10 18
8 6 8 5 3 4 8 19 19 19 14 13 10 15 8 19 10 13 19 13 9 8 10 7 4 13 23 23 22 28 25 25 18 22 18 14 15 6 6 4 7 9 16 18 19
6 8 4 7 4 9 15 16 20 14 13 21 15 17 11 8 7 3 14 9 10 5 2 3 8 11 16 16 21 19 29 24 21 11 19 17 15 9 6 6 6 9 14 20 18
5 5 7 6 3 9 16 19 18 15 12 14 18 14 9 17 20 8 16 4 13 13 6 3 8 14 12 7 13 10 20 30 26 17 18 19 10 8 8 7 9 13 21 19 17
3 4 11 7 10 13 13 19 22 16 14 16 15 19 19 18 19 17 20 13 10 10 4 0 8 17 19 23 16 19 30 26 29 23 21 20 18 10 10 8 11 13 15 16 17
6 7 8 13 13 13 8 15 18 18 19 15 13 19 19 19 15 21 22 18 16 6 6 2 4 13 18 14 11 21 34 27 28 28 26 22 16 19 11 5 9 9 13 14 17
11 9 4 10 10 5 3 9 20 20 10 17 21 18 20 19 17 20 22 22 19 18 13 5 4 4 5 5 4 19 24 22 23 28 25 18 5 23 9 6 6 10 11 14 17
Wind_Direction
358 355 353 350 348 348 347 348 341 336 337 334 333 326 333 331 317 301 254 238 242 236 252 228 222 225 216 224 233 233 255 256 254 261 274 282 269 272 281 94 296 322 306 298 293
353 352 348 347 344 343 342 339 334 332 330 329 326 326 335 329 313 275 252 245 240 229 213 219 224 229 226 228 229 223 236 242 253 275 284 275 286 292 257 245 284 311 261 251 253
355 351 348 344 342 340 336 331 328 326 325 324 323 329 328 330 294 277 254 232 231 228 225 227 245 215 231 234 227 229 238 245 254 255 261 273 278 285 267 254 228 223 296 307 318
350 347 343 341 337 333 331 327 322 321 318 318 317 318 318 309 250 129 53 193 208 209 221 238 248 246 226 231 236 233 237 246 255 260 272 279 286 287 285 298 282 295 289 268 274
349 344 341 338 334 331 329 325 320 317 315 314 311 317 328 238 247 224 318 136 182 205 227 230 233 232 241 235 241 240 240 245 255 257 257 267 273 283 282 280 279 279 280 291 269
345 341 339 335 332 328 326 322 320 317 312 305 304 308 275 264 259 259 247 253 245 234 225 224 235 232 245 242 241 246 243 248 252 253 259 263 270 271 274 283 283 280 266 272 279
350 344 339 333 328 324 323 320 314 315 309 295 289 285 268 256 269 278 288 259 251 249 257 258 236 235 243 246 255 254 256 262 255 260 264 269 267 258 266 267 275 275 273 276 272
345 343 340 336 330 324 320 316 310 310 304 296 277 254 255 256 255 260 259 255 254 253 253 259 272 282 265 258 258 251 258 259 253 259 257 260 264 266 271 279 273 280 276 275 265
341 339 337 334 329 324 320 313 303 299 303 278 247 215 275 266 228 252 252 259 255 247 242 243 251 257 266 246 246 247 249 251 251 248 261 255 265 265 254 255 256 265 276 276 278
340 338 334 331 328 326 319 309 300 289 283 242 242 256 238 271 266 191 272 255 234 242 248 223 229 237 238 234 227 222 235 243 259 254 253 247 256 259 256 257 257 246 264 266 269
341 338 334 329 327 325 326 324 338 248 225 267 274 222 291 293 289 240 292 265 235 246 235 221 217 220 220 220 238 236 237 246 253 250 247 253 257 267 274 264 258 270 266 260 256
343 336 330 326 325 320 307 289 324 313 296 279 270 268 267 270 271 268 264 255 248 241 227 229 218 224 230 228 233 244 247 250 260 260 259 263 260 252 256 261 261 243 247 265 283
343 339 331 324 325 311 274 309 330 311 291 279 259 264 263 243 246 250 241 241 242 246 236 225 236 225 232 234 236 236 236 246 258 266 266 271 269 272 270 267 269 268 263 256 271
341 337 334 332 310 318 308 338 321 340 285 286 207 228 230 254 242 247 240 229 236 238 247 249 243 243 227 235 231 243 234 243 250 252 258 258 269 257 263 266 261 267 265 249 248
342 339 342 321 316 328 336 327 326 308 275 111 100 108 194 206 186 214 205 219 235 240 234 248 247 236 239 237 228 245 243 251 248 251 259 255 260 268 271 265 255 254 253 253 249
342 334 334 7 265 310 331 329 316 251 255 12 6 353 346 326 314 322 243 211 237 236 244 255 254 253 247 243 247 245 240 249 257 255 246 243 244 264 256 261 265 263 257 243 255
339 310 308 313 328 340 332 308 297 287 289 350 331 331 323 298 273 241 276 267 239 244 257 248 244 250 249 253 235 238 231 234 234 236 242 242 241 253 265 263 265 277 278 259 255
331 290 290 285 336 355 353 357 292 345 6 353 345 326 308 296 279 275 221 263 251 248 279 267 257 228 237 237 238 225 232 222 221 222 239 241 251 261 253 259 251 247 248 265 216
332 291 256 352 344 340 332 280 8 354 353 347 337 318 324 313 345 296 279 271 344 20 156 322 282 260 227 243 237 233 224 235 245 237 245 259 248 234 245 243 232 211 242 158 125
321 305 302 6 359 282 298 295 322 2 350 341 335 252 318 318 313 331 327 330 291 100 120 299 285 277 271 219 242 238 227 225 225 231 246 239 242 257 185 219 218 207 220 210 137
296 248 158 313 294 299 276 288 338 323 316 321 312 324 321 336 314 292 268 200 175 321 255 251 222 275 286 243 219 228 225 220 241 223 238 248 267 73 85 133 217 194 203 197 143
297 290 123 332 321 283 291 338 303 303 305 312 312 314 271 329 327 310 324 354 180 252 285 308 299 269 269 271 236 237 223 229 218 211 227 244 238 84 150 208 233 257 194 149 146
290 321 119 258 319 325 312 306 306 335 357 320 323 316 345 308 286 344 293 301 199 245 281 9 235 266 253 260 266 257 227 233 237 230 216 233 247 157 169 211 237 271 166 139 146
289 331 328 348 10 308 316 313 311 326 323 339 314 325 348 324 323 302 298 6 328 305 39 313 258 261 268 302 333 320 268 228 222 207 226 223 210 167 197 191 203 228 126 139 151
281 294 337 305 312 316 309 298 305 322 342 336 315 321 340 327 322 312 318 325 288 272 293 358 285 297 286 268 277 299 292 252 222 198 218 228 222 196 181 135 97 109 131 142 150
331 346 340 305 310 323 312 306 318 336 335 311 325 321 318 312 310 304 306 300 305 239 277 280 282 277 272 256 264 292 283 275 219 219 212 236 147 85 63 15 126 144 148 151 155
354 312 300 292 310 308 305 320 309 316 305 320 309 310 306 311 311 294 279 279 275 282 278 285 277 303 272 172 13 286 252 251 240 204 204 215 250 130 197 261 93 141 152 162 158